Regional Weather Roundup
Issued by NWS Green Bay, WI

Home | Current Version | Previous Version | Text Only | Print | Product List | Glossary On
Versions: 1 2 3 4 5 6 7 8 9 10 11 12 13 14 15 16 17 18 19 20 21 22 23 24 25 26 27 28 29 30 31 32 33 34 35 36 37 38 39 40 41 42 43 44 45 46 47 48 49 50
000
ASUS43 KGRB 240210
RWRGRB

NORTH-CENTRAL AND NORTHEAST WISCONSIN REGIONAL WEATHER ROUNDUP
NATIONAL WEATHER SERVICE GREEN BAY WI
900 PM CDT THU OCT 23 2014

WIZ005-009-010>012-018-019-240300-
NORTH CENTRAL WISCONSIN

CITY           SKY/WX    TMP DP  RH WIND       PRES   REMARKS
IRONWOOD       CLOUDY    46  46 100 S10       29.96S
MANITOWISH WTR CLOUDY    45  45 100 SW8       30.00R FOG
ARBOR VITAE    CLOUDY    46  45  97 SW5       30.01R FOG
EAGLE RIVER    CLOUDY    44  44 100 SW3       30.00F FOG
LAND O LAKES   CLOUDY    45  45 100 SW8       30.00F FOG
RHINELANDER    CLOUDY    44  44 100 S7        30.02F FOG
PHILLIPS       CLOUDY    46  46  99 SW5       30.01S
ANTIGO         FOG       44  44 100 CALM      30.03F VSB 1/4
TOMAHAWK       FOG       45  44  97 CALM      30.02F VSB 3/4
MERRILL        FOG       46  46 100 S3        30.02F VSB 1
$$

WIZ013-073-240300-
NORTHEAST WISCONSIN

CITY           SKY/WX    TMP DP  RH WIND       PRES   REMARKS
IRON MOUNTAIN  CLOUDY    45  44  97 S5        30.01S FOG
MARINETTE      MOCLDY    48  45  87 CALM      30.04R
OCONTO         CLOUDY    47  47 100 CALM      30.05R
$$

WIZ017-030-035>037-045-240300-
CENTRAL WISCONSIN

CITY           SKY/WX    TMP DP  RH WIND       PRES   REMARKS
MEDFORD        FOG       46  46 100 S5        30.02F VSB 1/2
WAUSAU         FOG       46  46 100 SW5       30.02F VSB 1/4
MOSINEE        FOG       45  45 100 S3        30.04S VSB 1/4
MARSHFIELD     FOG       47  46  97 S3        30.03F VSB 1/4
WISC RAPIDS    CLOUDY    47  46  97 CALM      30.05F FOG
STEVENS POINT  CLOUDY    44  44  99 CALM      30.05S FOG
WAUPACA        CLOUDY    49  48  95 CALM      30.05S FOG
SHAWANO        CLOUDY    49  47  94 CALM      30.05S FOG
CLINTONVILLE   CLOUDY    46  46 100 CALM      30.05S FOG
$$

WIZ038-039-048-051-240300-
FOX VALLEY

CITY           SKY/WX    TMP DP  RH WIND       PRES   REMARKS
NWS GREEN BAY  CLOUDY    49  48  97 NW3       30.05R FOG
APPLETON       CLOUDY    48  46  93 SW5       30.05R FOG
OSHKOSH        CLOUDY    50  48  93 CALM      30.04R FOG
FOND DU LAC    CLOUDY    51  47  86 SW6       30.04S
$$

WIZ022-050-052-240300-
EAST CENTRAL WISCONSIN

CITY           SKY/WX    TMP DP  RH WIND       PRES   REMARKS
STURGEON BAY   CLOUDY    48  45  87 S7        30.06R
MANITOWOC      CLOUDY    50  48  93 S5        30.05F FOG
SHEBOYGAN      CLOUDY    50  48  93 S5        30.05F FOG
$$

LMZ563-521-522-541>543-240300-
LAKESHORE

STATION/POSITION TIME  TEMP    WIND        PRES    VSBY  WAVE
                       AIR SEA DIR/SP/G                  HT/PER
                 (UTC) (F)     (DEG/KT/KT) (MB)    (MI)  (FT/S)
SHEBOYGAN LKSHOR 0200   51 51  180/ 12/ 12 1018.1F
KEWAUNEE LKSHORE 0200   50     180/  6/  8 1016.8S
NORTHPORT PIER   0200   50     160/  3/  7 1017.3S
N MID LAKE BUOY  0200   51 51  200/ 17/ 19 1017.6R         4/ 5
SISTER BAY LKSHO 0100          170/  9/ 10   N/A
CHAMBERS ISLAND  0200   50     180/  5/  9 1017.6S
MENOMINEE LKSHOR 0200   49     210/  5/  8 1018.0S
$$



USA.gov is the U.S. government's official web portal to all federal, state and local government web resources and services.